Theta_e
348 349 350 351 352 353 352 348 345 347 350 345 352 351 351 349 351 350 350 352 351 351 351 351 350 349 347 348 347 348 348 346 343 342 344 341 342 347 349 349 349 349 349
349 350 352 353 354 350 346 345 345 348 348 349 347 349 348 350 352 351 351 351 352 351 352 352 351 349 350 350 348 345 347 347 351 351 351 346 338 346 348 348 349 350 349
349 350 353 353 353 349 341 342 344 351 348 346 350 346 351 353 352 352 353 352 352 352 352 351 350 349 350 349 349 347 345 347 348 344 348 346 334 347 350 349 349 347 348
348 350 353 353 352 351 345 342 350 352 347 350 345 347 353 353 351 352 353 353 352 353 352 351 350 349 350 350 349 344 335 343 343 344 346 345 345 345 347 346 343 344 346
348 351 352 353 350 349 349 350 350 350 348 347 352 351 352 352 353 353 350 352 353 352 352 351 351 350 350 350 347 341 335 343 344 344 346 346 346 344 348 343 341 349 348
351 352 350 353 354 351 350 351 350 350 346 350 348 353 353 353 354 354 353 351 351 351 351 351 350 350 348 347 345 339 337 343 346 347 346 345 341 349 348 347 348 349 347
352 353 353 353 352 352 350 351 351 350 347 348 352 353 352 354 355 353 354 352 351 351 351 351 350 346 347 346 346 342 340 344 346 346 344 337 340 346 349 350 346 347 347
351 350 352 352 350 350 352 352 350 350 353 353 353 353 347 348 352 353 354 353 351 350 349 346 346 346 345 343 343 341 343 346 346 346 347 338 341 349 349 349 348 347 347
349 352 353 354 353 352 350 351 350 351 353 353 350 348 346 345 345 346 347 351 351 349 345 344 344 344 343 342 342 343 345 345 348 346 348 339 339 349 349 348 347 348 347
350 351 353 351 351 351 352 353 352 353 353 349 345 345 346 346 348 346 342 342 344 345 344 344 344 345 343 340 339 341 346 346 345 347 346 340 338 349 343 347 348 347 347
350 349 348 349 351 350 351 352 353 353 348 342 343 345 347 349 352 354 349 342 343 343 345 345 345 343 343 340 340 342 347 344 346 349 343 341 340 349 347 348 343 346 345
350 347 345 347 348 350 348 347 351 350 348 347 350 338 345 350 351 350 346 343 342 342 342 343 345 346 345 346 346 345 347 348 347 345 336 340 342 349 348 345 341 335 344
351 346 344 346 347 348 348 343 349 347 347 350 351 343 343 353 351 352 350 349 347 350 350 348 349 350 350 350 347 348 347 344 346 342 334 339 342 350 348 347 341 337 339
348 345 344 347 345 348 348 344 348 346 347 351 350 352 353 348 352 341 351 349 352 351 349 351 352 350 346 345 348 347 341 344 346 341 336 335 332 346 349 347 346 342 344
349 345 345 348 345 348 349 345 346 345 346 348 353 346 354 352 353 349 350 350 352 352 351 349 351 350 345 346 343 343 338 343 346 342 337 336 335 337 346 348 348 347 345
346 345 346 350 346 348 349 349 346 344 343 346 347 351 346 352 353 351 353 350 350 353 352 351 351 350 348 348 343 339 342 339 341 345 340 336 338 338 341 346 343 346 346
346 344 347 348 349 349 349 351 348 347 346 344 347 349 351 350 353 348 348 352 351 353 353 350 351 351 347 347 342 338 340 338 338 340 344 339 338 339 341 341 343 342 348
345 345 348 347 350 349 350 351 350 349 345 345 344 347 350 351 353 356 352 351 355 351 351 350 351 348 343 345 341 341 340 341 342 340 341 343 341 341 338 340 340 341 340
346 348 347 347 350 351 352 353 350 349 347 344 344 345 349 351 353 352 354 351 351 354 352 349 349 350 348 345 340 339 336 339 339 339 339 345 343 341 340 337 337 337 340
348 349 347 348 349 351 352 351 352 351 347 346 344 343 351 353 355 356 355 354 352 351 352 349 351 347 345 339 339 340 339 339 340 340 338 343 343 343 342 338 337 338 339
349 350 349 350 349 352 354 354 354 351 348 346 345 343 354 352 353 356 357 353 352 352 354 352 353 348 347 336 338 337 338 337 340 340 339 340 343 344 344 345 346 344 342
349 350 352 351 350 354 354 354 352 350 348 346 345 344 348 351 354 354 353 355 352 351 353 351 351 350 345 338 340 343 345 342 341 339 341 341 343 345 344 348 344 343 344
350 352 353 353 356 354 353 352 351 348 347 347 345 344 347 349 356 356 354 353 354 354 352 353 348 348 348 338 337 345 341 344 344 340 337 336 339 342 341 337 339 342 344
350 351 354 355 355 356 353 353 352 350 349 346 345 345 349 350 356 357 355 354 354 353 353 354 353 352 344 341 337 338 342 345 348 346 339 341 340 338 336 337 339 340 343
349 352 354 357 356 358 354 355 351 351 348 346 344 347 346 354 355 358 358 357 354 352 354 355 352 345 352 345 339 338 338 340 342 346 344 341 338 338 335 339 338 339 340
348 351 353 357 358 358 358 351 357 352 351 348 347 348 352 356 356 355 357 358 356 352 352 355 356 352 349 352 344 342 338 339 342 340 349 346 342 342 340 336 337 340 338
Wind_Speed
12 10 13 14 17 18 18 20 19 18 16 17 16 15 16 16 15 15 14 14 12 13 13 13 12 12 11 11 10 9 10 9 10 10 10 11 12 11 8 6 7 12 13
15 12 15 17 18 18 20 20 17 16 15 17 15 15 15 14 15 14 14 14 12 12 13 12 12 12 11 10 10 9 9 9 8 9 10 12 11 11 12 15 15 14 13
18 16 15 18 18 18 19 18 16 15 16 16 15 15 14 15 14 14 13 13 12 11 12 12 11 10 9 8 8 8 8 9 7 7 9 10 10 11 11 14 15 15 14
20 19 17 19 19 19 19 18 16 15 15 14 13 14 13 14 14 13 12 12 12 12 11 11 10 8 7 7 7 9 9 9 7 7 5 8 11 10 10 11 14 13 13
22 21 19 20 20 19 19 17 16 15 15 13 14 13 13 13 12 12 12 11 11 11 10 9 9 8 7 6 6 8 11 10 7 14 10 14 14 12 11 13 13 12 12
17 21 20 20 19 19 18 16 16 14 14 12 12 13 13 12 11 11 11 11 11 10 10 9 8 7 6 5 4 6 10 8 3 8 13 16 14 12 10 11 12 13 12
21 22 19 19 19 19 17 15 15 14 12 11 11 11 12 11 11 11 11 11 11 10 9 8 8 7 6 5 4 4 8 9 10 15 12 13 15 12 11 11 11 11 11
20 23 19 19 18 17 15 14 14 12 11 11 11 10 11 10 9 10 11 11 10 10 10 9 8 7 6 5 5 5 9 4 10 14 12 14 14 13 12 11 10 11 11
26 26 21 18 17 15 15 14 13 11 10 10 9 8 7 8 9 10 11 11 10 10 9 8 8 7 5 4 6 6 7 6 6 12 12 15 13 13 12 12 11 11 11
27 27 23 20 18 15 14 13 12 11 9 9 9 8 7 6 7 10 11 11 11 10 8 7 6 7 6 4 7 11 10 6 4 18 16 15 12 12 11 10 10 10 10
28 26 22 21 19 18 15 12 11 10 9 8 7 5 3 4 5 7 9 10 11 8 7 6 6 4 3 3 6 10 11 9 12 15 11 13 12 12 10 9 10 10 10
26 29 25 23 20 20 15 14 11 9 7 7 8 2 10 9 6 7 4 8 10 8 5 5 4 4 5 2 4 7 9 7 11 10 12 12 12 11 9 9 8 8 9
31 31 29 26 22 20 21 16 14 11 13 10 9 10 8 7 8 5 1 3 9 8 5 3 2 3 5 11 8 10 8 15 10 9 11 10 11 11 9 8 8 8 7
25 29 31 28 22 19 18 15 18 16 17 17 10 10 5 2 5 5 6 5 5 5 4 4 2 3 6 7 4 13 5 7 13 15 13 11 12 11 9 8 7 7 7
25 24 29 30 26 17 16 14 15 13 9 11 12 8 7 3 9 3 10 4 0 6 7 3 2 5 3 8 9 12 3 11 14 11 11 9 11 12 10 9 8 7 6
26 24 29 27 26 17 12 9 8 10 11 5 6 9 4 2 2 5 5 6 3 8 5 5 3 3 2 4 3 3 5 6 8 13 9 9 10 11 12 10 9 9 7
28 26 29 26 24 20 16 9 9 8 8 8 3 6 3 6 2 0 6 6 3 3 5 5 3 7 2 1 0 1 2 6 6 11 10 7 11 10 10 11 10 10 9
29 30 27 26 26 25 19 15 12 11 11 9 10 9 7 7 4 2 1 3 1 2 3 5 2 2 5 1 4 5 5 10 8 12 6 14 11 8 9 11 11 10 10
29 29 26 25 28 27 21 18 18 15 11 12 10 9 11 10 6 4 1 3 3 2 6 4 2 4 9 8 8 3 2 5 7 3 6 17 18 7 9 11 10 7 7
28 27 29 25 23 29 24 21 19 16 15 13 11 10 16 10 8 8 3 5 3 5 10 6 1 2 1 3 8 5 4 2 7 9 5 17 17 11 12 9 10 7 4
30 29 32 27 26 31 26 24 19 19 16 16 14 12 14 9 9 11 8 6 7 2 4 6 3 2 1 2 4 7 3 5 4 6 10 11 14 18 14 15 10 6 5
33 32 32 30 30 29 26 25 22 18 19 19 17 15 14 11 13 13 11 9 6 6 8 5 6 3 4 3 3 7 2 5 4 8 10 11 16 15 11 10 7 5 6
33 34 34 34 29 30 26 24 21 20 19 22 20 19 19 18 15 15 13 9 7 8 11 8 6 2 2 5 4 2 2 1 3 7 6 7 6 15 13 8 10 7 7
33 35 36 36 33 31 30 26 23 21 19 19 21 20 20 21 18 17 15 12 9 8 11 9 10 3 4 7 2 4 2 1 2 1 11 11 9 8 9 10 11 8 8
35 35 36 36 35 31 34 27 30 24 23 23 22 21 24 25 23 19 18 16 15 15 11 6 13 9 5 5 6 8 4 4 3 3 1 7 10 13 11 8 11 10 12
34 36 36 36 36 34 33 39 26 30 24 23 23 21 21 20 25 22 19 19 17 13 12 12 9 9 12 7 8 6 8 4 5 5 3 8 11 18 16 12 13 13 16
Wind_Direction
151 146 119 127 130 131 132 130 120 108 106 97 93 89 84 83 82 80 87 89 90 94 98 94 88 86 86 82 77 76 80 80 86 88 91 86 92 92 77 67 102 89 93
142 141 127 130 132 137 139 137 122 113 107 98 99 93 92 88 90 84 85 88 91 94 93 91 90 87 85 76 69 73 88 85 91 101 99 93 103 91 71 82 93 99 97
139 137 129 131 133 137 141 140 127 118 109 108 100 92 91 87 87 87 90 89 91 92 98 95 94 95 90 83 80 68 86 85 87 98 124 98 107 96 84 91 96 97 99
138 135 135 133 134 139 137 133 126 117 113 108 106 104 96 92 92 88 88 92 90 94 97 99 100 101 97 88 85 74 85 95 94 145 136 111 102 99 90 92 92 96 101
141 137 141 138 138 139 133 132 126 119 114 116 110 103 100 98 91 87 87 94 93 93 95 99 98 98 100 102 89 79 103 110 131 81 90 113 109 103 98 88 98 95 112
143 138 141 139 139 138 136 133 125 125 121 120 119 110 107 103 89 91 92 91 93 92 93 95 97 94 88 89 100 95 112 119 126 190 100 116 109 102 97 105 102 100 101
148 140 141 143 142 139 137 133 129 126 132 130 121 116 115 108 101 99 98 94 93 93 94 94 96 95 92 86 100 115 120 100 104 108 109 92 100 102 101 103 104 106 103
152 145 147 146 147 141 137 138 131 139 133 134 132 127 126 128 121 112 105 101 97 97 97 98 97 91 84 93 115 119 142 125 114 116 113 104 107 102 97 102 98 104 105
154 146 150 149 146 143 143 142 148 146 145 142 134 127 120 129 129 124 119 115 112 109 105 101 95 90 74 81 123 121 137 114 124 118 109 111 109 103 103 103 101 104 106
149 144 154 152 151 148 148 155 155 153 156 151 134 127 126 131 137 115 112 124 122 117 111 109 96 82 64 58 127 124 119 62 95 130 127 117 113 114 111 106 105 108 107
150 152 160 158 159 157 158 162 162 167 164 150 118 97 77 166 190 136 148 132 129 126 119 92 81 74 34 75 149 145 136 81 83 116 120 125 122 125 122 121 120 114 115
162 158 166 165 165 165 162 170 168 177 172 141 131 225 169 209 150 148 150 138 127 114 115 106 101 136 234 235 156 171 166 144 132 102 115 133 128 134 134 132 125 127 125
177 167 166 172 169 176 165 159 180 194 187 177 149 166 217 191 149 106 179 198 137 125 129 115 206 136 295 256 243 219 164 128 140 121 135 147 138 142 146 143 139 130 131
189 171 166 164 169 181 161 166 193 190 194 170 179 191 162 110 114 133 161 299 220 172 124 126 60 115 217 320 342 160 122 171 165 151 144 148 153 156 155 156 154 153 152
188 176 160 161 169 196 170 188 198 185 193 184 167 186 231 127 142 72 149 127 244 100 103 90 95 122 45 1 55 114 101 119 140 133 137 152 156 157 166 166 172 170 174
174 181 158 154 171 186 189 204 235 184 196 208 173 190 218 157 282 44 119 124 158 95 59 94 84 82 242 49 345 72 343 133 114 149 133 150 169 168 172 176 184 186 184
173 179 163 163 173 181 199 211 208 202 193 207 229 151 166 268 358 341 75 92 133 111 135 115 106 111 128 183 145 333 12 147 149 146 127 186 164 166 180 184 187 188 190
175 176 170 180 176 182 196 204 203 221 219 206 209 204 203 219 234 171 355 46 355 108 160 152 215 290 212 258 179 264 157 166 142 122 151 172 154 143 182 189 189 189 193
176 173 180 183 173 177 192 198 207 225 222 218 223 214 197 190 217 235 69 154 228 302 154 130 165 229 237 214 195 235 328 129 133 209 184 174 177 174 164 171 175 176 194
177 175 179 183 189 179 185 199 205 223 213 231 224 223 186 182 203 236 238 198 242 128 156 129 317 237 102 86 141 211 175 129 110 161 154 162 190 173 163 170 165 157 151
176 177 179 186 192 175 179 191 209 209 207 216 232 220 188 189 216 235 232 270 212 186 166 156 174 236 353 122 149 126 146 143 192 251 163 161 161 171 177 165 152 192 168
179 180 180 188 191 182 183 190 203 204 210 211 221 224 210 216 217 230 235 240 237 191 187 179 162 279 204 185 235 198 158 228 175 191 159 178 153 170 164 149 150 122 169
181 181 182 187 191 189 188 193 199 210 217 208 212 219 211 215 225 227 229 219 209 190 198 184 179 214 89 234 230 333 52 223 164 164 142 113 97 142 136 132 107 106 131
186 184 184 186 192 192 191 194 199 204 207 220 207 215 213 217 210 219 213 213 211 203 182 180 183 178 221 204 222 243 325 336 128 170 170 171 167 143 145 146 144 145 142
186 184 185 186 191 194 196 199 199 202 213 212 221 214 217 210 208 207 212 208 210 221 215 202 169 196 225 256 222 198 206 256 194 114 172 173 201 191 179 158 164 162 169
188 185 186 187 191 194 196 203 205 204 206 217 211 222 209 199 205 210 215 213 216 221 217 200 191 206 214 245 266 199 191 205 198 202 200 202 202 177 182 174 163 176 178